Location: Gülübeli Geçidi
(36.8411°N, 29.7411°E)
Time: 11:08:46
(UTC+00:00)

Cosmos 540 Rocket - Pass Details

Date: 15 May 2026
Orbit: 735 x 747 km, 74.1° (Epoch: 6 June)

Event Time Altitude Azimuth Distance (km) Brightness Sun altitude
Exits shadow 20:28:05 41° 281° (W) 1,083 4.4 -30.3°
Maximum altitude 20:28:27 41° 292° (WNW) 1,073 4.5 -30.3°
Drops below altitude 10° 20:33:18 10° 3° (N) 2,269 6.7 -30.7°
Sets 20:35:48 0° 11° (N) 3,195 7.5 -30.9°
